Regional Weather Roundup
Issued by NWS

Home | Current Version | Previous Version | Graphics & Text | Print | Product List | Glossary Off
Versions: 1 2 3 4 5 6 7 8 9 10 11 12 13 14 15 16 17 18 19 20 21 22 23 24 25 26 27 28 29 30 31 32 33 34 35 36 37 38 39 40 41 42 43 44 45 46 47 48 49 50

000
ASUS43 KMKX 191321
RWRWI

WISCONSIN REGIONAL WEATHER ROUNDUP
NATIONAL WEATHER SERVICE MILWAUKEE/SULLIVAN WI
800 AM CDT THU OCT 19 2017

NOTE: "FAIR" INDICATES FEW OR NO CLOUDS BELOW 12,000 FEET WITH NO
SIGNIFICANT WEATHER AND/OR OBSTRUCTIONS TO VISIBILITY.

WIZ001-002-006>008-014>016-023>028-191400-
NORTHWEST WISCONSIN

CITY           SKY/WX    TMP DP  RH WIND       PRES   REMARKS
SUPERIOR ARPT  PTCLDY    42  29  59 SW8       29.99R
ASHLAND        CLOUDY    45  26  47 SW12      30.00R
HAYWARD        CLOUDY    35  29  78 CALM      30.03R
SIREN          CLOUDY    38  31  76 CALM      30.04R
CUMBERLAND     CLOUDY    34  30  86 CALM      30.05R
RICE LAKE      CLOUDY    35  33  91 CALM      30.07R
CHETEK         CLOUDY    36  32  88 CALM      30.06R
LADYSMITH      CLOUDY    39  30  69 CALM      30.07R
EAU CLAIRE     CLOUDY    38  32  79 CALM      30.07R
MENOMONIE      CLOUDY    38  33  84 E3        30.07R
NEW RICHMOND   CLOUDY    41  31  65 CALM      30.06R
OSCEOLA        CLOUDY    34  34  98 CALM      30.08R
$$

WIZ003>005-009-010-017-018-191400-
NORTH CENTRAL WISCONSIN

CITY           SKY/WX    TMP DP  RH WIND       PRES   REMARKS
MANITOWISH WTR PTCLDY    41  26  56 SW6       30.00R
ARBOR VITAE    CLOUDY    42  27  55 W5        30.01R
WOODRUFF       CLOUDY    42  27  55 W5        30.01R
RHINELANDER    CLOUDY    38  27  64 W8        30.03R WCI  32
EAGLE RIVER    CLOUDY    42  24  49 W10       29.99R
LAND O LAKES   CLOUDY    44  24  44 W6        29.99R
PHILLIPS       CLOUDY    40  26  57 SW5       30.03R
TOMAHAWK       CLOUDY    38  26  62 CALM      30.04R
MEDFORD        CLOUDY    39  28  64 SW3       30.05R
MERRILL        CLOUDY    38  29  68 W5        30.06R WCI  35
$$

WIZ029-030-035-036-043>047-191400-
CENTRAL WISCONSIN

CITY           SKY/WX    TMP DP  RH WIND       PRES   REMARKS
WAUSAU         CLOUDY    43  29  57 W6        30.05R
MOSINEE        PTCLDY    43  30  61 W6        30.08R
MARSHFIELD     PTCLDY    44  28  53 W9        30.07R
STEVENS POINT  CLOUDY    46  26  46 W5        30.09R
WAUPACA        CLOUDY    45  30  55 CALM      30.09R
WAUTOMA        CLOUDY    39  33  79 S3        30.11
WISC RAPIDS    PTCLDY    39  32  76 CALM      30.10R
CAMP DOUGLAS   MOCLDY    36  32  87 CALM      30.10R
$$

WIZ011>013-019>022-031-037>040-048>050-191400-
NORTHEAST WISCONSIN

CITY           SKY/WX    TMP DP  RH WIND       PRES   REMARKS
ANTIGO         PTCLDY    38  28  67 W7        30.05R WCI  33
SHAWANO        CLOUDY    47  29  50 SW3       30.06R
OCONTO         CLOUDY    43  29  58 SW5       30.05R
STURGEON BAY   CLOUDY    49  32  52 W9        30.05R
GREEN BAY      CLOUDY    47  32  56 W7        30.07R
MANITOWOC      CLOUDY    49  32  52 W8        30.08R
APPLETON       MOCLDY    46  27  46 W8        30.07R
CLINTONVILLE   CLOUDY    45  28  53 W6        30.07R
OSHKOSH        CLOUDY    47  29  49 W7        30.09R
$$

WIZ032>034-041-042-053>061-191400-
SOUTHWEST WISCONSIN

CITY           SKY/WX    TMP DP  RH WIND       PRES   REMARKS
LA CROSSE      CLOUDY    46  38  73 S6        30.11R
SPARTA         CLOUDY    32  32  98 CALM      30.12R
VIROQUA        CLOUDY    45  30  57 SW5       30.11R
BOSCOBEL       PTCLDY    39  37  92 CALM      30.14R FOG
PRAIRIE DU CHI CLOUDY    40  34  79 CALM      30.13R
PLATTEVILLE    CLOUDY    45  40  82 SE3       30.14R
$$

WIZ056-057-062-063-064-067-068-191400-
SOUTH CENTRAL WISCONSIN

CITY           SKY/WX    TMP DP  RH WIND       PRES   REMARKS
REEDSBURG      CLOUDY    41  35  80 CALM      30.12R
BARABOO/DELLS  CLOUDY    43  31  63 S3        30.11R
LONE ROCK      CLOUDY    40  38  93 CALM      30.13R
MINERAL POINT  CLOUDY    46  32  57 CALM      30.12R
MADISON        CLOUDY    43  35  73 CALM      30.12R
MIDDLETON      CLOUDY    41  38  86 CALM      30.12R
WATERTOWN      CLOUDY    41  37  88 CALM      30.11R
MONROE         CLOUDY    52  27  37 CALM      30.13R
JANESVILLE     CLEAR     45  45 100 CALM      30.12R
$$

WIZ051-052-058>065-066-070>072-191400-
SOUTHEAST WISCONSIN

CITY           SKY/WX    TMP DP  RH WIND       PRES   REMARKS
MILWAUKEE      CLOUDY    54  29  38 W3        30.12R
WAUKESHA       CLEAR     46  32  57 W9        30.12R
MILWAUKEE/TIMM CLEAR     48  27  43 W3        30.11R
RACINE         MOCLDY    51  38  60 W6        30.13R
BURLINGTON     PTCLDY    43  39  85 CALM      30.13R
KENOSHA        PTCLDY    47  40  76 W3        30.12R
FOND DU LAC    CLOUDY    46  29  51 SW7       30.10R
SHEBOYGAN      CLOUDY    46  33  60 SW6       30.09R
WEST BEND      PTCLDY    46  28  49 W5        30.10R
JUNEAU         CLOUDY    43  31  63 CALM      30.12R
$$

LSZ147-162-191400-
LAKE SUPERIOR

STATION/POSITION TIME  TEMP    WIND        PRES    WAVE
                       AIR SEA DIR/SP/G            HT/PER
                 (UTC) (F)     (DEG/KT/KT) (MB)    (FT/S)
W MID LAKE BUOY  1250   52 52              1012.1R   6/ 7
DEVILS ISLAND    1300   52     250/ 23/ 27 1014.4R
SAXON HARBOR     1230   49     200/  7/ 11 1014.6R
$$

LMZ867-665-643>646-191400-
LAKE MICHIGAN

STATION/POSITION TIME  TEMP    WIND        PRES    WAVE
                       AIR SEA DIR/SP/G            HT/PER
                 (UTC) (F)     (DEG/KT/KT) (MB)    (FT/S)
S GREEN BAY BUOY 1300   52 58  250/ 17/ 21 1017.2
N MID LAKE BUOY  1250   56 58  250/ 19/ 21 1015.5R   4/ 7
NORTHPORT PIER   1240   54     250/  7/ 12 1015.6R
KEWAUNEE LAKESHO 1254   49     300/  5/  8 1016.8
SHEBOYGAN LAKESH 1300   52     260/ 10/ 12 1018.8R
PORT WASHINGTON  1240   53     260/  4/  6 1020.0R
MILWAUKEE LAKESH 1300   54     280/  5/  6   N/A
S MID LAKE BUOY  1250   59 60  340/ 14/ 17 1019.2R   3/ 5
KENOSHA   LAKESH 1300   54     270/  8/ 10 1020.0
$$

TC  - TEMPERATURE IN CELSIUS
VSB - VISIBILITY IN STATUTE MILES
WCI - WIND CHILL INDEX
HX  - HEAT INDEX





USA.gov is the U.S. government's official web portal to all federal, state and local government web resources and services.